Location: Newark
(43.0000°N, 1.6781°W)
Time: 01:10:05
(UTC+00:00)

Vanguard 1 - Visible Passes

Search period start: 01 December 2021 00:00
Search period end: 11 December 2021 00:00
Orbit: 653 x 3830 km, 34.3° (Epoch: 30 November)

Date Brightness Start Highest point End Pass type
(mag) Time Alt. Az. Time Alt. Az. Time Alt. Az.
01 Dec 12.7 02:17:19 59° SE 02:17:19 59° SE 02:30:48 10° E visible
01 Dec 12.4 04:30:01 39° WSW 04:38:45 60° SSW 04:51:28 10° ESE visible
01 Dec 12.7 06:46:00 10° W 07:00:18 32° SW 07:09:11 10° SSE visible
02 Dec 13.7 00:24:12 23° E 00:24:12 23° E 00:29:05 10° E visible
02 Dec 12.6 02:36:54 64° SSE 02:36:54 64° SSE 02:51:47 10° E visible
02 Dec 12.4 04:49:36 33° WSW 04:59:41 56° SSW 05:12:02 10° SE visible
03 Dec 13.5 00:43:48 28° E 00:43:48 28° E 00:50:21 10° E visible
03 Dec 12.5 02:56:29 66° S 02:56:32 66° S 03:12:41 10° ESE visible
03 Dec 12.5 05:09:11 27° W 05:20:29 50° SSW 05:32:27 10° SE visible
03 Dec 13.9 22:50:41 - E 22:50:41 - E 22:09:06 10° SSW visible
04 Dec 13.3 01:03:23 34° ESE 01:03:23 34° ESE 01:11:32 10° E visible
04 Dec 12.5 03:16:04 63° SSW 03:17:46 65° S 03:33:32 10° ESE visible
04 Dec 12.6 05:28:46 22° W 05:41:06 43° SW 05:52:39 10° SSE visible
04 Dec 13.7 20:14:56 10° SSE 20:16:09 12° SSE 20:16:09 12° SSE visible
04 Dec 14.0 23:10:18 - E 23:10:18 - E 22:28:51 10° SSW visible
05 Dec 13.2 01:22:59 41° ESE 01:22:59 41° ESE 01:32:39 10° E visible
05 Dec 12.5 03:35:41 58° SW 03:38:55 62° SSW 03:54:16 10° ESE visible
05 Dec 12.8 05:48:22 17° W 06:01:34 36° SW 06:12:36 10° SSE visible
05 Dec 13.6 20:32:35 10° S 20:35:55 16° SSE 20:35:55 16° SSE visible
05 Dec 14.0 23:29:54 10° E 23:29:54 10° E 22:48:38 - SW visible
06 Dec 13.0 01:42:36 47° ESE 01:42:36 47° ESE 01:53:43 10° E visible
06 Dec 12.6 03:55:18 51° WSW 03:59:58 58° SSW 04:14:53 10° SE visible
06 Dec 13.0 06:08:00 12° W 06:21:49 29° SW 06:32:11 10° S visible
06 Dec 13.5 20:51:18 10° S 20:55:44 19° S 20:55:44 19° S visible
06 Dec 14.0 23:49:32 14° E 23:49:32 14° E 23:51:12 10° E visible
07 Dec 12.9 02:02:14 53° SE 02:02:14 53° SE 02:14:43 10° ESE visible
07 Dec 12.7 04:14:56 44° WSW 04:20:50 52° SSW 04:35:20 10° SE visible
07 Dec 13.2 06:29:02 10° W 06:41:56 22° SW 06:51:14 10° S visible
07 Dec 13.4 21:10:40 10° SSW 21:15:34 22° S 21:15:34 22° S visible
08 Dec 13.9 00:09:11 18° E 00:09:11 18° E 00:12:29 10° E visible
08 Dec 12.8 02:21:53 57° SE 02:21:53 57° SE 02:35:39 10° ESE visible
08 Dec 12.8 04:34:36 37° WSW 04:41:33 46° SSW 04:55:34 10° SE visible
08 Dec 13.4 06:52:35 10° W 07:01:55 16° SW 07:09:18 10° SSW visible
08 Dec 13.5 19:17:16 10° SSE 19:22:41 15° SE 19:22:41 15° SE visible
08 Dec 13.4 21:30:27 10° SSW 21:35:24 24° SSW 21:35:24 24° SSW visible
09 Dec 13.7 00:28:52 23° E 00:28:52 23° E 00:33:43 10° E visible
09 Dec 12.7 02:41:35 59° SSE 02:41:35 59° SSE 02:56:27 10° ESE visible
09 Dec 12.9 04:54:17 31° WSW 05:02:06 39° SW 05:15:32 10° SSE visible
09 Dec 13.3 19:34:48 10° S 19:42:32 21° SE 19:42:32 21° SE visible
09 Dec 13.4 21:50:34 10° SW 21:55:15 24° SSW 21:55:15 24° SSW visible
10 Dec 13.6 00:48:35 27° ESE 00:48:35 27° ESE 00:54:54 10° E visible
10 Dec 12.7 03:01:17 58° S 03:01:17 58° S 03:17:08 10° SE visible
10 Dec 13.1 05:14:00 24° WSW 05:22:27 32° SW 05:35:08 10° SSE visible
10 Dec 13.1 19:53:31 10° S 20:02:23 27° SSE 20:02:23 27° SSE visible
10 Dec 13.5 22:10:57 10° SW 22:55:36 - E 22:15:07 23° SW visible
